| time (UTC) | temp F | wind direction | speed MPH | gust MPH | rain 1hr in | rain 24hr in | rain mn in | humidity % | barometer mb |
| 20260507095532 | 51 | 32 | 1.0 | 9.0 | 0.00 | 0.00 | 0.00 | 78 | 1011.9 |
| 20260507095031 | 51 | 30 | 1.0 | 9.0 | 0.00 | 0.00 | 0.00 | 79 | 1011.8 |
| 20260507094544 | 51 | 120 | 1.0 | 9.0 | 0.00 | 0.00 | 0.00 | 79 | 1011.9 |
| 20260507094030 | 50 | 266 | 1.0 | 4.0 | 0.00 | 0.00 | 0.00 | 79 | 1011.8 |
| 20260507093531 | 50 | 45 | 1.0 | 7.0 | 0.00 | 0.00 | 0.00 | 79 | 1011.9 |
| 20260507093042 | 50 | 58 | 1.0 | 7.0 | 0.00 | 0.00 | 0.00 | 79 | 1011.9 |
| 20260507092531 | 49 | 53 | 1.0 | 4.0 | 0.00 | 0.00 | 0.00 | 80 | 1011.7 |
| 20260507092030 | 49 | 307 | 0.0 | 3.0 | 0.00 | 0.00 | 0.00 | 80 | 1011.8 |
| 20260507091545 | 49 | 86 | 0.0 | 4.0 | 0.00 | 0.00 | 0.00 | 80 | 1011.9 |
| 20260507091031 | 49 | 49 | 1.0 | 4.0 | 0.00 | 0.00 | 0.00 | 80 | 1011.9 |
| 20260507090533 | 49 | 52 | 1.0 | 3.0 | 0.00 | 0.00 | 0.00 | 80 | 1011.9 |
| 20260507090040 | 49 | 101 | 0.0 | 5.0 | 0.00 | 0.00 | 0.00 | 80 | 1012.0 |
| 20260507085531 | 49 | 339 | 0.0 | 5.0 | 0.00 | 0.00 | 0.00 | 80 | 1012.0 |
| 20260507085033 | 49 | 68 | 1.0 | 5.0 | 0.00 | 0.00 | 0.00 | 80 | 1012.0 |
| 20260507084539 | 49 | 32 | 0.0 | 3.0 | 0.00 | 0.00 | 0.00 | 80 | 1011.9 |
| 20260507084030 | 49 | 0 | 0.0 | 4.0 | 0.00 | 0.00 | 0.00 | 79 | 1011.8 |
| 20260507083530 | 49 | 289 | 1.0 | 4.0 | 0.00 | 0.00 | 0.00 | 78 | 1011.8 |
| 20260507083035 | 50 | 37 | 1.0 | 5.0 | 0.00 | 0.00 | 0.00 | 77 | 1011.9 |
| 20260507082531 | 50 | 103 | 2.0 | 7.0 | 0.00 | 0.00 | 0.00 | 76 | 1011.8 |
| 20260507082030 | 50 | 4 | 1.0 | 7.0 | 0.00 | 0.00 | 0.00 | 76 | 1011.8 |
| 20260507081543 | 50 | 11 | 1.0 | 6.0 | 0.00 | 0.00 | 0.00 | 76 | 1011.8 |
| 20260507081029 | 50 | 340 | 1.0 | 5.0 | 0.00 | 0.00 | 0.00 | 76 | 1011.7 |
| 20260507080530 | 50 | 328 | 1.0 | 5.0 | 0.00 | 0.00 | 0.00 | 76 | 1011.9 |
| 20260507080044 | 50 | 224 | 1.0 | 5.0 | 0.00 | 0.00 | 0.00 | 76 | 1011.8 |
| 20260507075531 | 50 | 0 | 1.0 | 5.0 | 0.00 | 0.00 | 0.00 | 76 | 1011.8 |
| 20260507075031 | 50 | 349 | 1.0 | 5.0 | 0.00 | 0.00 | 0.00 | 76 | 1011.8 |
| 20260507074538 | 50 | 94 | 1.0 | 5.0 | 0.00 | 0.00 | 0.00 | 76 | 1011.9 |
| 20260507074030 | 49 | 107 | 1.0 | 5.0 | 0.00 | 0.00 | 0.00 | 76 | 1011.8 |
| 20260507073530 | 49 | 25 | 1.0 | 7.0 | 0.00 | 0.00 | 0.00 | 76 | 1011.8 |
| 20260507073036 | 49 | 356 | 1.0 | 7.0 | 0.00 | 0.00 | 0.00 | 76 | 1011.8 |
| 20260507072531 | 49 | 160 | 1.0 | 5.0 | 0.00 | 0.00 | 0.00 | 76 | 1011.8 |
| 20260507072110 | 49 | 354 | 1.0 | 6.0 | 0.00 | 0.00 | 0.00 | 76 | 1011.9 |
| 20260507071535 | 49 | 345 | 1.0 | 6.0 | 0.00 | 0.00 | 0.00 | 76 | 1011.9 |
| 20260507071034 | 49 | 142 | 1.0 | 5.0 | 0.00 | 0.00 | 0.00 | 76 | 1012.0 |
| 20260507070531 | 49 | 290 | 1.0 | 5.0 | 0.00 | 0.00 | 0.00 | 76 | 1012.0 |
| 20260507070035 | 49 | 91 | 2.0 | 6.0 | 0.00 | 0.00 | 0.00 | 76 | 1011.8 |
| 20260507065532 | 48 | 56 | 1.0 | 6.0 | 0.00 | 0.00 | 0.00 | 76 | 1011.9 |
| 20260507065030 | 48 | 338 | 0.0 | 7.0 | 0.00 | 0.00 | 0.00 | 76 | 1011.9 |
| 20260507064541 | 48 | 270 | 1.0 | 7.0 | 0.00 | 0.00 | 0.00 | 76 | 1011.8 |
| 20260507064030 | 48 | 39 | 1.0 | 6.0 | 0.00 | 0.00 | 0.00 | 76 | 1011.9 |
| 20260507063529 | 48 | 26 | 1.0 | 6.0 | 0.00 | 0.00 | 0.00 | 76 | 1011.9 |
| 20260507063036 | 48 | 319 | 2.0 | 6.0 | 0.00 | 0.00 | 0.00 | 76 | 1011.9 |
| 20260507062531 | 48 | 241 | 2.0 | 4.0 | 0.00 | 0.00 | 0.00 | 76 | 1011.9 |
| 20260507062032 | 48 | 128 | 1.0 | 5.0 | 0.00 | 0.00 | 0.00 | 76 | 1011.9 |
| 20260507061537 | 48 | 4 | 1.0 | 5.0 | 0.00 | 0.00 | 0.00 | 76 | 1011.9 |
| 20260507061031 | 48 | 304 | 2.0 | 6.0 | 0.00 | 0.00 | 0.00 | 76 | 1011.9 |
| 20260507060530 | 47 | 32 | 2.0 | 6.0 | 0.00 | 0.00 | 0.00 | 76 | 1011.8 |
| 20260507060036 | 47 | 96 | 2.0 | 6.0 | 0.00 | 0.00 | 0.00 | 76 | 1012.0 |
| 20260507055530 | 47 | 0 | 0.0 | 4.0 | 0.00 | 0.00 | 0.00 | 77 | 1012.0 |
| 20260507055033 | 47 | 283 | 0.0 | 4.0 | 0.00 | 0.00 | 0.00 | 77 | 1011.9 |
| 20260507054538 | 46 | 75 | 1.0 | 4.0 | 0.00 | 0.00 | 0.00 | 77 | 1012.0 |
| 20260507054030 | 46 | 257 | 0.0 | 3.0 | 0.00 | 0.00 | 0.00 | 77 | 1012.0 |
| 20260507053530 | 46 | 51 | 0.0 | 3.0 | 0.00 | 0.00 | 0.00 | 77 | 1012.0 |
| 20260507053041 | 46 | 0 | 0.0 | 2.0 | 0.00 | 0.00 | 0.00 | 77 | 1011.9 |
| 20260507052532 | 46 | 0 | 0.0 | 2.0 | 0.00 | 0.00 | 0.00 | 77 | 1012.1 |
| 20260507052030 | 46 | 68 | 1.0 | 2.0 | 0.00 | 0.00 | 0.00 | 77 | 1012.2 |
| 20260507051537 | 45 | 75 | 0.0 | 2.0 | 0.00 | 0.00 | 0.00 | 77 | 1012.2 |
| 20260507051030 | 45 | 59 | 0.0 | 2.0 | 0.00 | 0.00 | 0.00 | 77 | 1012.1 |
| 20260507050529 | 45 | 72 | 0.0 | 3.0 | 0.00 | 0.00 | 0.00 | 77 | 1012.0 |
| 20260507050046 | 45 | 72 | 0.0 | 3.0 | 0.00 | 0.00 | 0.00 | 77 | 1012.0 |
| 20260507045531 | 45 | 67 | 1.0 | 2.0 | 0.00 | 0.00 | 0.00 | 76 | 1012.0 |
| 20260507045031 | 45 | 81 | 0.0 | 6.0 | 0.00 | 0.00 | 0.00 | 76 | 1012.0 |
| 20260507044536 | 45 | 101 | 1.0 | 6.0 | 0.00 | 0.00 | 0.00 | 76 | 1012.1 |
| 20260507044030 | 45 | 72 | 3.0 | 6.0 | 0.00 | 0.00 | 0.00 | 76 | 1012.0 |
| 20260507043531 | 45 | 65 | 2.0 | 3.0 | 0.00 | 0.00 | 0.00 | 76 | 1012.0 |
| 20260507043042 | 45 | 20 | 0.0 | 3.0 | 0.00 | 0.00 | 0.00 | 76 | 1012.1 |
| 20260507042532 | 45 | 72 | 1.0 | 3.0 | 0.00 | 0.00 | 0.00 | 76 | 1012.1 |
| 20260507042030 | 45 | 79 | 1.0 | 4.0 | 0.00 | 0.00 | 0.00 | 75 | 1012.1 |
| 20260507041543 | 45 | 74 | 2.0 | 6.0 | 0.00 | 0.00 | 0.00 | 75 | 1012.1 |
| 20260507041030 | 45 | 86 | 2.0 | 6.0 | 0.00 | 0.00 | 0.00 | 75 | 1012.0 |
| 20260507040529 | 45 | 74 | 1.0 | 3.0 | 0.00 | 0.00 | 0.00 | 75 | 1012.1 |
| 20260507040042 | 45 | 60 | 0.0 | 2.0 | 0.00 | 0.00 | 0.00 | 75 | 1012.1 |
| 20260507035529 | 45 | 0 | 0.0 | 2.0 | 0.00 | 0.00 | 0.00 | 75 | 1012.2 |
| 20260507035030 | 45 | 79 | 0.0 | 2.0 | 0.00 | 0.00 | 0.00 | 74 | 1012.3 |
| 20260507034548 | 45 | 0 | 1.0 | 2.0 | 0.00 | 0.00 | 0.00 | 74 | 1012.3 |
| 20260507034029 | 45 | 76 | 1.0 | 3.0 | 0.00 | 0.00 | 0.00 | 74 | 1012.3 |
| 20260507033531 | 46 | 70 | 1.0 | 6.0 | 0.00 | 0.00 | 0.00 | 74 | 1012.3 |
| 20260507033035 | 45 | 72 | 1.0 | 6.0 | 0.00 | 0.00 | 0.00 | 74 | 1012.3 |
| 20260507032531 | 45 | 68 | 0.0 | 2.0 | 0.00 | 0.00 | 0.00 | 74 | 1012.4 |
| 20260507032030 | 45 | 0 | 0.0 | 2.0 | 0.00 | 0.00 | 0.00 | 74 | 1012.4 |
| 20260507031543 | 45 | 102 | 0.0 | 1.0 | 0.00 | 0.00 | 0.00 | 74 | 1012.5 |
| 20260507031030 | 46 | 0 | 0.0 | 1.0 | 0.00 | 0.00 | 0.00 | 73 | 1012.6 |
| 20260507030531 | 46 | 0 | 0.0 | 3.0 | 0.00 | 0.00 | 0.00 | 73 | 1012.5 |
| 20260507030044 | 46 | 0 | 0.0 | 3.0 | 0.00 | 0.00 | 0.00 | 73 | 1012.5 |
| 20260507025530 | 46 | 91 | 1.0 | 3.0 | 0.00 | 0.00 | 0.00 | 73 | 1012.5 |
| 20260507025030 | 46 | 52 | 0.0 | 2.0 | 0.00 | 0.00 | 0.00 | 72 | 1012.4 |
| 20260507024538 | 46 | 64 | 0.0 | 2.0 | 0.00 | 0.00 | 0.00 | 72 | 1012.5 |
| 20260507024030 | 46 | 58 | 0.0 | 3.0 | 0.00 | 0.00 | 0.00 | 72 | 1012.5 |
| 20260507023530 | 46 | 86 | 0.0 | 3.0 | 0.00 | 0.00 | 0.00 | 71 | 1012.6 |
| 20260507023039 | 46 | 0 | 0.0 | 3.0 | 0.00 | 0.00 | 0.00 | 71 | 1012.6 |
| 20260507022530 | 46 | 81 | 1.0 | 3.0 | 0.00 | 0.00 | 0.00 | 71 | 1012.7 |
| 20260507022030 | 46 | 0 | 0.0 | 2.0 | 0.00 | 0.00 | 0.00 | 71 | 1012.8 |
| 20260507021535 | 46 | 0 | 0.0 | 2.0 | 0.00 | 0.00 | 0.00 | 71 | 1012.8 |
| 20260507021030 | 45 | 97 | 0.0 | 2.0 | 0.00 | 0.00 | 0.00 | 71 | 1012.8 |
| 20260507020530 | 45 | 0 | 0.0 | 2.0 | 0.00 | 0.00 | 0.00 | 71 | 1012.9 |
| 20260507020052 | 45 | 134 | 0.0 | 1.0 | 0.00 | 0.00 | 0.00 | 70 | 1012.8 |
| 20260507015530 | 46 | 0 | 0.0 | 1.0 | 0.00 | 0.00 | 0.00 | 70 | 1012.8 |
| 20260507015030 | 46 | 81 | 0.0 | 1.0 | 0.00 | 0.00 | 0.00 | 70 | 1012.8 |
| 20260507014541 | 46 | 81 | 0.0 | 2.0 | 0.00 | 0.00 | 0.00 | 71 | 1012.8 |
| 20260507014029 | 46 | 82 | 0.0 | 2.0 | 0.00 | 0.00 | 0.00 | 71 | 1012.9 |
| 20260507013531 | 45 | 78 | 0.0 | 2.0 | 0.00 | 0.00 | 0.00 | 71 | 1012.9 |
| 20260507013047 | 45 | 77 | 0.0 | 1.0 | 0.00 | 0.00 | 0.00 | 72 | 1013.0 |
| 20260507012531 | 45 | 0 | 0.0 | 1.0 | 0.00 | 0.00 | 0.00 | 72 | 1013.0 |
| 20260507012030 | 45 | 77 | 0.0 | 1.0 | 0.00 | 0.00 | 0.00 | 73 | 1012.9 |
| 20260507011536 | 45 | 0 | 0.0 | 2.0 | 0.00 | 0.00 | 0.00 | 72 | 1012.9 |
| 20260507011029 | 45 | 0 | 0.0 | 2.0 | 0.00 | 0.00 | 0.00 | 72 | 1013.0 |
| 20260507010530 | 45 | 0 | 0.0 | 2.0 | 0.00 | 0.00 | 0.00 | 72 | 1013.0 |
| 20260507010043 | 45 | 0 | 0.0 | 2.0 | 0.00 | 0.00 | 0.00 | 73 | 1013.0 |
| 20260507005530 | 46 | 0 | 0.0 | 2.0 | 0.00 | 0.00 | 0.00 | 73 | 1013.0 |
| 20260507005030 | 46 | 0 | 0.0 | 2.0 | 0.00 | 0.00 | 0.00 | 73 | 1013.1 |
| 20260507004552 | 46 | 0 | 0.0 | 3.0 | 0.00 | 0.00 | 0.00 | 73 | 1013.0 |
| 20260507004030 | 46 | 110 | 1.0 | 4.0 | 0.00 | 0.00 | 0.00 | 73 | 1013.1 |
| 20260507003530 | 46 | 108 | 1.0 | 4.0 | 0.00 | 0.00 | 0.00 | 73 | 1013.2 |
| 20260507003049 | 46 | 94 | 0.0 | 2.0 | 0.00 | 0.00 | 0.00 | 73 | 1013.2 |
| 20260507002529 | 45 | 86 | 0.0 | 2.0 | 0.00 | 0.00 | 0.00 | 73 | 1013.3 |
| 20260507002033 | 46 | 107 | 0.0 | 2.0 | 0.00 | 0.00 | 0.00 | 73 | 1013.3 |
| 20260507001543 | 46 | 120 | 0.0 | 3.0 | 0.00 | 0.00 | 0.00 | 74 | 1013.1 |
| 20260507001031 | 46 | 104 | 1.0 | 4.0 | 0.00 | 0.00 | 0.00 | 74 | 1013.2 |
| 20260507000530 | 46 | 78 | 1.0 | 4.0 | 0.00 | 0.00 | 0.00 | 74 | 1013.2 |
| 20260507000042 | 46 | 68 | 2.0 | 4.0 | 0.00 | 0.00 | 0.00 | 74 | 1013.2 |
| 20260506235531 | 46 | 81 | 2.0 | 4.0 | 0.00 | 0.00 | 0.00 | 74 | 1013.2 |
| 20260506235030 | 46 | 79 | 2.0 | 6.0 | 0.00 | 0.00 | 0.00 | 74 | 1013.2 |
| 20260506234547 | 46 | 71 | 3.0 | 6.0 | 0.00 | 0.00 | 0.00 | 75 | 1013.3 |
| 20260506234030 | 46 | 65 | 1.0 | 2.0 | 0.00 | 0.00 | 0.00 | 75 | 1013.3 |
| 20260506233530 | 46 | 89 | 0.0 | 5.0 | 0.00 | 0.00 | 0.00 | 75 | 1013.3 |
| 20260506233036 | 46 | 83 | 1.0 | 5.0 | 0.00 | 0.00 | 0.00 | 76 | 1013.2 |
| 20260506232530 | 46 | 86 | 3.0 | 5.0 | 0.00 | 0.00 | 0.00 | 76 | 1013.2 |
| 20260506232030 | 46 | 77 | 2.0 | 3.0 | 0.00 | 0.00 | 0.00 | 75 | 1013.2 |
| 20260506231536 | 46 | 74 | 1.0 | 2.0 | 0.00 | 0.00 | 0.00 | 75 | 1013.3 |
| 20260506231031 | 46 | 80 | 0.0 | 2.0 | 0.00 | 0.00 | 0.00 | 75 | 1013.2 |
| 20260506230531 | 46 | 0 | 0.0 | 2.0 | 0.00 | 0.00 | 0.00 | 76 | 1013.4 |
| 20260506230048 | 46 | 110 | 1.0 | 3.0 | 0.00 | 0.00 | 0.00 | 76 | 1013.4 |
| 20260506225530 | 46 | 63 | 1.0 | 3.0 | 0.00 | 0.00 | 0.00 | 76 | 1013.4 |
| 20260506225030 | 46 | 95 | 1.0 | 3.0 | 0.00 | 0.00 | 0.00 | 76 | 1013.5 |
| 20260506224538 | 46 | 102 | 0.0 | 2.0 | 0.00 | 0.00 | 0.00 | 76 | 1013.5 |
| 20260506224030 | 46 | 143 | 1.0 | 2.0 | 0.00 | 0.00 | 0.00 | 76 | 1013.5 |
| 20260506223530 | 46 | 143 | 0.0 | 1.0 | 0.00 | 0.00 | 0.00 | 76 | 1013.6 |
| 20260506223045 | 46 | 143 | 0.0 | 2.0 | 0.00 | 0.00 | 0.00 | 76 | 1013.7 |
| 20260506222530 | 46 | 143 | 0.0 | 2.0 | 0.00 | 0.00 | 0.00 | 76 | 1013.6 |
| 20260506222029 | 46 | 145 | 0.0 | 2.0 | 0.00 | 0.00 | 0.00 | 76 | 1013.7 |
| 20260506221541 | 46 | 146 | 0.0 | 1.0 | 0.00 | 0.00 | 0.00 | 76 | 1013.6 |
| 20260506221030 | 46 | 0 | 0.0 | 1.0 | 0.00 | 0.00 | 0.00 | 76 | 1013.5 |
| 20260506220532 | 46 | 0 | 0.0 | 0.0 | 0.00 | 0.00 | 0.00 | 76 | 1013.5 |
| 20260506220039 | 46 | 0 | 0.0 | 0.0 | 0.00 | 0.00 | 0.00 | 75 | 1013.6 |
| 20260506215529 | 46 | 0 | 0.0 | 0.0 | 0.00 | 0.00 | 0.00 | 75 | 1013.6 |
| 20260506215034 | 46 | 0 | 0.0 | 0.0 | 0.00 | 0.00 | 0.00 | 75 | 1013.6 |
| 20260506214541 | 46 | 0 | 0.0 | 1.0 | 0.00 | 0.00 | 0.00 | 74 | 1013.6 |
| 20260506214032 | 46 | 0 | 0.0 | 1.0 | 0.00 | 0.00 | 0.00 | 74 | 1013.5 |
| 20260506213530 | 46 | 0 | 0.0 | 1.0 | 0.00 | 0.00 | 0.00 | 74 | 1013.5 |
| 20260506213057 | 46 | 0 | 0.0 | 1.0 | 0.00 | 0.00 | 0.00 | 74 | 1013.6 |
| 20260506212530 | 46 | 0 | 0.0 | 0.0 | 0.00 | 0.00 | 0.00 | 73 | 1013.7 |
| 20260506212030 | 47 | 0 | 0.0 | 0.0 | 0.00 | 0.00 | 0.00 | 73 | 1013.6 |
| 20260506211540 | 47 | 0 | 0.0 | 1.0 | 0.00 | 0.00 | 0.00 | 73 | 1013.6 |
| 20260506211029 | 47 | 0 | 0.0 | 1.0 | 0.00 | 0.00 | 0.00 | 72 | 1013.7 |
| 20260506210530 | 47 | 0 | 0.0 | 0.0 | 0.00 | 0.00 | 0.00 | 72 | 1013.7 |
| 20260506210039 | 47 | 0 | 0.0 | 0.0 | 0.00 | 0.00 | 0.00 | 72 | 1013.6 |
| 20260506205530 | 48 | 0 | 0.0 | 0.0 | 0.00 | 0.00 | 0.00 | 71 | 1013.6 |
| 20260506205031 | 48 | 0 | 0.0 | 1.0 | 0.00 | 0.00 | 0.00 | 70 | 1013.6 |
| 20260506204538 | 48 | 0 | 0.0 | 2.0 | 0.00 | 0.00 | 0.00 | 70 | 1013.7 |
| 20260506204030 | 48 | 0 | 0.0 | 2.0 | 0.00 | 0.00 | 0.00 | 69 | 1013.6 |
| 20260506203530 | 48 | 0 | 0.0 | 2.0 | 0.00 | 0.00 | 0.00 | 69 | 1013.5 |
| 20260506203044 | 48 | 0 | 0.0 | 1.0 | 0.00 | 0.00 | 0.00 | 68 | 1013.6 |
| 20260506202534 | 49 | 0 | 0.0 | 0.0 | 0.00 | 0.00 | 0.00 | 68 | 1013.6 |
| 20260506202031 | 49 | 0 | 0.0 | 0.0 | 0.00 | 0.00 | 0.00 | 68 | 1013.5 |
| 20260506201544 | 49 | 0 | 0.0 | 0.0 | 0.00 | 0.00 | 0.00 | 68 | 1013.5 |
| 20260506201033 | 49 | 0 | 0.0 | 0.0 | 0.00 | 0.00 | 0.00 | 68 | 1013.6 |
| 20260506200530 | 49 | 0 | 0.0 | 0.0 | 0.00 | 0.00 | 0.00 | 67 | 1013.6 |
| 20260506200035 | 49 | 0 | 0.0 | 0.0 | 0.00 | 0.00 | 0.00 | 66 | 1013.6 |
| 20260506195530 | 50 | 0 | 0.0 | 1.0 | 0.00 | 0.00 | 0.00 | 66 | 1013.5 |
| 20260506195030 | 50 | 0 | 0.0 | 1.0 | 0.00 | 0.00 | 0.00 | 65 | 1013.5 |
| 20260506194536 | 50 | 0 | 0.0 | 1.0 | 0.00 | 0.00 | 0.00 | 64 | 1013.6 |
| 20260506194033 | 50 | 240 | 0.0 | 1.0 | 0.00 | 0.00 | 0.00 | 64 | 1013.6 |
| 20260506193533 | 50 | 0 | 0.0 | 1.0 | 0.00 | 0.00 | 0.00 | 64 | 1013.5 |
| 20260506193037 | 50 | 0 | 0.0 | 2.0 | 0.00 | 0.00 | 0.00 | 63 | 1013.4 |
| 20260506192530 | 50 | 0 | 0.0 | 2.0 | 0.00 | 0.00 | 0.00 | 63 | 1013.5 |
| 20260506192030 | 50 | 0 | 0.0 | 2.0 | 0.00 | 0.00 | 0.00 | 63 | 1013.5 |
| 20260506191539 | 50 | 0 | 0.0 | 2.0 | 0.00 | 0.00 | 0.00 | 63 | 1013.5 |
| 20260506191031 | 51 | 279 | 0.0 | 2.0 | 0.00 | 0.00 | 0.00 | 62 | 1013.5 |
| 20260506190534 | 51 | 0 | 0.0 | 3.0 | 0.00 | 0.00 | 0.00 | 61 | 1013.5 |
| 20260506190043 | 51 | 334 | 1.0 | 3.0 | 0.00 | 0.00 | 0.00 | 60 | 1013.5 |
| 20260506185532 | 51 | 279 | 1.0 | 3.0 | 0.00 | 0.00 | 0.00 | 60 | 1013.5 |
| 20260506185031 | 51 | 269 | 0.0 | 4.0 | 0.00 | 0.00 | 0.00 | 60 | 1013.4 |
| 20260506184549 | 51 | 262 | 2.0 | 4.0 | 0.00 | 0.00 | 0.00 | 59 | 1013.5 |
| 20260506184032 | 52 | 288 | 2.0 | 4.0 | 0.00 | 0.00 | 0.00 | 58 | 1013.5 |
| 20260506183532 | 52 | 288 | 1.0 | 3.0 | 0.00 | 0.00 | 0.00 | 58 | 1013.5 |
| 20260506183050 | 52 | 297 | 0.0 | 3.0 | 0.00 | 0.00 | 0.00 | 59 | 1013.4 |
| 20260506182531 | 52 | 258 | 1.0 | 4.0 | 0.00 | 0.00 | 0.00 | 58 | 1013.3 |
| 20260506182031 | 52 | 13 | 1.0 | 4.0 | 0.00 | 0.00 | 0.00 | 58 | 1013.2 |
| 20260506181600 | 52 | 293 | 2.0 | 5.0 | 0.00 | 0.00 | 0.00 | 57 | 1013.3 |
| 20260506181032 | 53 | 206 | 1.0 | 5.0 | 0.00 | 0.00 | 0.00 | 57 | 1013.3 |
| 20260506180532 | 53 | 291 | 2.0 | 5.0 | 0.00 | 0.00 | 0.00 | 56 | 1013.3 |
| 20260506180044 | 53 | 304 | 1.0 | 4.0 | 0.00 | 0.00 | 0.00 | 56 | 1013.2 |
| 20260506175532 | 53 | 0 | 1.0 | 3.0 | 0.00 | 0.00 | 0.00 | 56 | 1013.2 |
| 20260506175037 | 53 | 254 | 1.0 | 2.0 | 0.00 | 0.00 | 0.00 | 54 | 1013.1 |
| 20260506174543 | 53 | 0 | 0.0 | 2.0 | 0.00 | 0.00 | 0.00 | 56 | 1013.3 |
| 20260506174032 | 53 | 0 | 0.0 | 1.0 | 0.00 | 0.00 | 0.00 | 55 | 1013.2 |
| 20260506173532 | 53 | 224 | 0.0 | 1.0 | 0.00 | 0.00 | 0.00 | 55 | 1013.3 |
| 20260506173054 | 53 | 0 | 0.0 | 0.0 | 0.00 | 0.00 | 0.00 | 55 | 1013.2 |
| 20260506172532 | 53 | 0 | 0.0 | 0.0 | 0.00 | 0.00 | 0.00 | 54 | 1013.3 |
| 20260506172031 | 53 | 0 | 0.0 | 0.0 | 0.00 | 0.00 | 0.00 | 54 | 1013.3 |
| 20260506171536 | 53 | 0 | 0.0 | 1.0 | 0.00 | 0.00 | 0.00 | 52 | 1013.3 |
| 20260506171032 | 53 | 0 | 0.0 | 1.0 | 0.00 | 0.00 | 0.00 | 52 | 1013.4 |
| 20260506170533 | 53 | 0 | 0.0 | 1.0 | 0.00 | 0.00 | 0.00 | 50 | 1013.4 |
| 20260506170040 | 54 | 0 | 0.0 | 1.0 | 0.00 | 0.00 | 0.00 | 49 | 1013.4 |
| 20260506165533 | 54 | 0 | 0.0 | 2.0 | 0.00 | 0.00 | 0.00 | 49 | 1013.4 |
| 20260506165035 | 54 | 84 | 0.0 | 2.0 | 0.00 | 0.00 | 0.00 | 50 | 1013.5 |
| 20260506164538 | 54 | 126 | 0.0 | 1.0 | 0.00 | 0.00 | 0.00 | 50 | 1013.5 |
| 20260506164031 | 54 | 105 | 0.0 | 1.0 | 0.00 | 0.00 | 0.00 | 52 | 1013.5 |
| 20260506163531 | 54 | 0 | 0.0 | 1.0 | 0.00 | 0.00 | 0.00 | 51 | 1013.4 |
| 20260506163043 | 54 | 0 | 0.0 | 1.0 | 0.00 | 0.00 | 0.00 | 50 | 1013.5 |
| 20260506162531 | 54 | 0 | 0.0 | 1.0 | 0.00 | 0.00 | 0.00 | 49 | 1013.4 |
| 20260506162033 | 54 | 0 | 0.0 | 1.0 | 0.00 | 0.00 | 0.00 | 48 | 1013.5 |
| 20260506161546 | 54 | 0 | 0.0 | 1.0 | 0.00 | 0.00 | 0.00 | 49 | 1013.4 |
| 20260506161031 | 54 | 0 | 0.0 | 2.0 | 0.00 | 0.00 | 0.00 | 49 | 1013.6 |
| 20260506160532 | 54 | 0 | 0.0 | 2.0 | 0.00 | 0.00 | 0.00 | 48 | 1013.6 |
| 20260506160044 | 55 | 269 | 0.0 | 2.0 | 0.00 | 0.00 | 0.00 | 47 | 1013.6 |
| 20260506155534 | 55 | 0 | 0.0 | 2.0 | 0.00 | 0.00 | 0.00 | 47 | 1013.7 |
| 20260506155032 | 55 | 269 | 0.0 | 2.0 | 0.00 | 0.00 | 0.00 | 50 | 1013.7 |
| 20260506154547 | 55 | 143 | 0.0 | 2.0 | 0.00 | 0.00 | 0.00 | 48 | 1013.8 |
| 20260506154032 | 55 | 139 | 0.0 | 2.0 | 0.00 | 0.00 | 0.00 | 49 | 1013.9 |
| 20260506153531 | 55 | 74 | 0.0 | 1.0 | 0.00 | 0.00 | 0.00 | 46 | 1014.0 |
| 20260506153105 | 55 | 32 | 0.0 | 1.0 | 0.00 | 0.00 | 0.00 | 47 | 1014.0 |
| 20260506152531 | 55 | 0 | 0.0 | 1.0 | 0.00 | 0.00 | 0.00 | 45 | 1014.0 |
| 20260506152031 | 55 | 44 | 0.0 | 1.0 | 0.00 | 0.00 | 0.00 | 46 | 1014.1 |
| 20260506151544 | 55 | 0 | 0.0 | 2.0 | 0.00 | 0.00 | 0.00 | 46 | 1014.0 |
| 20260506151038 | 54 | 0 | 0.0 | 3.0 | 0.00 | 0.00 | 0.00 | 46 | 1014.1 |
| 20260506150531 | 54 | 0 | 0.0 | 5.0 | 0.00 | 0.00 | 0.00 | 47 | 1014.1 |
| 20260506150052 | 54 | 0 | 0.0 | 5.0 | 0.00 | 0.00 | 0.00 | 46 | 1014.2 |
| 20260506145531 | 54 | 84 | 2.0 | 5.0 | 0.00 | 0.00 | 0.00 | 45 | 1014.3 |
| 20260506145032 | 55 | 89 | 0.0 | 2.0 | 0.00 | 0.00 | 0.00 | 45 | 1014.3 |
| 20260506144536 | 55 | 12 | 0.0 | 3.0 | 0.00 | 0.00 | 0.00 | 47 | 1014.3 |
| 20260506144032 | 54 | 64 | 1.0 | 3.0 | 0.00 | 0.00 | 0.00 | 46 | 1014.3 |
| 20260506143532 | 54 | 319 | 1.0 | 4.0 | 0.00 | 0.00 | 0.00 | 46 | 1014.2 |
| 20260506143044 | 54 | 0 | 1.0 | 4.0 | 0.00 | 0.00 | 0.00 | 47 | 1014.4 |
| 20260506142532 | 53 | 65 | 1.0 | 4.0 | 0.00 | 0.00 | 0.00 | 46 | 1014.4 |
| 20260506142032 | 54 | 71 | 0.0 | 8.0 | 0.00 | 0.00 | 0.00 | 46 | 1014.4 |
| 20260506141545 | 54 | 139 | 4.0 | 8.0 | 0.00 | 0.00 | 0.00 | 45 | 1014.5 |
| 20260506141031 | 54 | 0 | 0.0 | 2.0 | 0.00 | 0.00 | 0.00 | 45 | 1014.5 |
| 20260506140533 | 54 | 82 | 1.0 | 2.0 | 0.00 | 0.00 | 0.00 | 44 | 1014.6 |
| 20260506140042 | 54 | 24 | 0.0 | 2.0 | 0.00 | 0.00 | 0.00 | 44 | 1014.7 |
| 20260506135531 | 54 | 248 | 0.0 | 5.0 | 0.00 | 0.00 | 0.00 | 45 | 1014.6 |
| 20260506135031 | 54 | 81 | 2.0 | 5.0 | 0.00 | 0.00 | 0.00 | 44 | 1014.7 |
| 20260506134543 | 54 | 0 | 0.0 | 3.0 | 0.00 | 0.00 | 0.00 | 46 | 1014.9 |
| 20260506134033 | 54 | 109 | 1.0 | 3.0 | 0.00 | 0.00 | 0.00 | 44 | 1014.9 |
| 20260506133531 | 54 | 152 | 0.0 | 4.0 | 0.00 | 0.00 | 0.00 | 45 | 1014.8 |
| 20260506133048 | 54 | 46 | 1.0 | 7.0 | 0.00 | 0.00 | 0.00 | 45 | 1014.8 |
| 20260506132533 | 54 | 65 | 4.0 | 7.0 | 0.00 | 0.00 | 0.00 | 45 | 1014.9 |
| 20260506132032 | 54 | 349 | 1.0 | 6.0 | 0.00 | 0.00 | 0.00 | 45 | 1014.9 |
| 20260506131552 | 54 | 87 | 3.0 | 6.0 | 0.00 | 0.00 | 0.00 | 44 | 1014.9 |
| 20260506131032 | 54 | 326 | 1.0 | 5.0 | 0.00 | 0.00 | 0.00 | 45 | 1014.9 |
| 20260506130532 | 54 | 278 | 2.0 | 7.0 | 0.00 | 0.00 | 0.00 | 46 | 1015.1 |
| 20260506130043 | 54 | 88 | 2.0 | 7.0 | 0.00 | 0.00 | 0.00 | 47 | 1015.1 |
| 20260506125532 | 54 | 82 | 5.0 | 8.0 | 0.00 | 0.00 | 0.00 | 45 | 1015.2 |
| 20260506125034 | 54 | 95 | 4.0 | 8.0 | 0.00 | 0.00 | 0.00 | 44 | 1015.1 |
| 20260506124535 | 54 | 61 | 1.0 | 8.0 | 0.00 | 0.00 | 0.00 | 45 | 1015.1 |
| 20260506124035 | 54 | 162 | 4.0 | 8.0 | 0.00 | 0.00 | 0.00 | 45 | 1015.2 |
| 20260506123531 | 54 | 281 | 0.0 | 5.0 | 0.00 | 0.00 | 0.00 | 46 | 1015.2 |
| 20260506123042 | 53 | 138 | 2.0 | 10.0 | 0.00 | 0.00 | 0.00 | 45 | 1015.2 |
| 20260506122531 | 53 | 95 | 2.0 | 10.0 | 0.00 | 0.00 | 0.00 | 44 | 1015.3 |
| 20260506122031 | 54 | 86 | 1.0 | 6.0 | 0.00 | 0.00 | 0.00 | 44 | 1015.5 |
| 20260506121539 | 53 | 53 | 1.0 | 9.0 | 0.00 | 0.00 | 0.00 | 46 | 1015.3 |
| 20260506121033 | 52 | 152 | 3.0 | 9.0 | 0.00 | 0.00 | 0.00 | 44 | 1015.5 |
| 20260506120534 | 52 | 79 | 2.0 | 7.0 | 0.00 | 0.00 | 0.00 | 45 | 1015.4 |
| 20260506120040 | 52 | 75 | 2.0 | 7.0 | 0.00 | 0.00 | 0.00 | 46 | 1015.4 |
| 20260506115534 | 51 | 30 | 3.0 | 8.0 | 0.00 | 0.00 | 0.00 | 47 | 1015.5 |
| 20260506115031 | 52 | 65 | 4.0 | 8.0 | 0.00 | 0.00 | 0.00 | 45 | 1015.4 |
| 20260506114536 | 51 | 100 | 1.0 | 7.0 | 0.00 | 0.00 | 0.00 | 46 | 1015.4 |
| 20260506114031 | 51 | 267 | 2.0 | 7.0 | 0.00 | 0.00 | 0.00 | 46 | 1015.5 |
| 20260506113531 | 51 | 68 | 3.0 | 8.0 | 0.00 | 0.00 | 0.00 | 45 | 1015.6 |
| 20260506113041 | 51 | 122 | 4.0 | 8.0 | 0.00 | 0.00 | 0.00 | 45 | 1015.7 |
| 20260506112531 | 51 | 106 | 4.0 | 9.0 | 0.00 | 0.00 | 0.00 | 44 | 1015.8 |
| 20260506112035 | 51 | 106 | 3.0 | 9.0 | 0.00 | 0.00 | 0.00 | 44 | 1015.8 |
| 20260506111535 | 51 | 128 | 2.0 | 9.0 | 0.00 | 0.00 | 0.00 | 45 | 1015.8 |
| 20260506111031 | 50 | 336 | 2.0 | 9.0 | 0.00 | 0.00 | 0.00 | 47 | 1015.8 |
| 20260506110531 | 50 | 82 | 5.0 | 9.0 | 0.00 | 0.00 | 0.00 | 46 | 1015.9 |
| 20260506110038 | 50 | 105 | 4.0 | 8.0 | 0.00 | 0.00 | 0.00 | 45 | 1016.0 |
| 20260506105531 | 50 | 71 | 3.0 | 7.0 | 0.00 | 0.00 | 0.00 | 45 | 1016.0 |
| 20260506105035 | 51 | 103 | 3.0 | 7.0 | 0.00 | 0.00 | 0.00 | 45 | 1015.9 |
| 20260506104536 | 50 | 34 | 2.0 | 9.0 | 0.00 | 0.00 | 0.00 | 46 | 1016.0 |
| 20260506104030 | 50 | 56 | 2.0 | 9.0 | 0.00 | 0.00 | 0.00 | 47 | 1016.0 |
| 20260506103531 | 50 | 65 | 3.0 | 8.0 | 0.00 | 0.00 | 0.00 | 46 | 1016.1 |
| 20260506103039 | 50 | 98 | 3.0 | 8.0 | 0.00 | 0.00 | 0.00 | 47 | 1016.0 |
| 20260506102532 | 50 | 82 | 4.0 | 8.0 | 0.00 | 0.00 | 0.00 | 47 | 1016.0 |
| 20260506102031 | 51 | 63 | 1.0 | 3.0 | 0.00 | 0.00 | 0.00 | 48 | 1016.1 |
| 20260506101543 | 51 | 148 | 1.0 | 7.0 | 0.00 | 0.00 | 0.00 | 50 | 1016.2 |
| 20260506101031 | 50 | 316 | 2.0 | 7.0 | 0.00 | 0.00 | 0.00 | 53 | 1016.3 |
| 20260506100531 | 49 | 82 | 3.0 | 9.0 | 0.00 | 0.00 | 0.00 | 53 | 1016.3 |
| 20260506100042 | 49 | 59 | 2.0 | 9.0 | 0.00 | 0.00 | 0.00 | 53 | 1016.4 |